FW4804 Weather Reports


time (UTC)temp
F
wind
direction
speed
knots
gust
knots
rain 1hr
in
rain 24hr
in
rain mn
in
humidity
%
barometer
mb
20260506202020 48 0 0.0 0.0 0.00 0.00 0.00 75 1018.6
20260506201505 48 0 0.0 0.0 0.00 0.00 0.00 75 1018.7
20260506200520 49 1 0.0 0.9 0.00 0.00 0.00 75 1018.9
20260506200005 49 8 0.0 1.7 0.00 0.00 0.00 75 1018.8
20260506195508 49 8 0.0 1.7 0.00 0.00 0.00 75 1018.5
20260506194505 49 0 0.0 0.0 0.00 0.00 0.00 74 1018.5
20260506194005 50 0 0.0 0.0 0.00 0.00 0.00 74 1018.5
20260506193505 50 0 0.0 0.0 0.00 0.00 0.00 73 1018.3
20260506192505 51 0 0.0 0.0 0.00 0.00 0.00 72 1018.1
20260506192005 52 1 0.0 1.7 0.00 0.00 0.00 71 1018.2
20260506191505 52 350 0.0 1.7 0.00 0.00 0.00 71 1017.9
20260506191005 52 225 0.0 0.9 0.00 0.00 0.00 70 1017.9
20260506190507 52 222 0.0 0.9 0.00 0.00 0.00 70 1017.9
20260506190006 52 0 0.0 0.0 0.00 0.00 0.00 68 1018.0
20260506185505 53 0 0.0 0.0 0.00 0.00 0.00 68 1018.1
20260506184005 54 0 0.0 0.0 0.00 0.00 0.00 64 1017.9
20260506183505 55 0 0.0 0.0 0.00 0.00 0.00 61 1018.0
20260506183006 55 0 0.0 0.0 0.00 0.00 0.00 59 1018.0
20260506182007 57 270 0.9 2.6 0.00 0.00 0.00 55 1017.8
20260506181506 58 270 0.9 2.6 0.00 0.00 0.00 53 1017.8
20260506181005 58 270 0.0 1.7 0.00 0.00 0.00 53 1017.7
20260506175505 59 261 3.5 5.2 0.00 0.00 0.00 49 1017.3
20260506175006 59 263 3.5 4.3 0.00 0.00 0.00 49 1017.4
20260506174506 60 270 3.5 6.1 0.00 0.00 0.00 49 1017.3
20260506174006 60 275 4.3 8.7 0.00 0.00 0.00 48 1017.2
20260506173021 61 203 7.0 8.7 0.00 0.00 0.00 47 1017.1
20260506172505 61 258 6.1 9.6 0.00 0.00 0.00 47 1017.1
20260506171506 61 279 3.5 9.6 0.00 0.00 0.00 48 1016.9
20260506170505 61 266 1.7 4.3 0.00 0.00 0.00 49 1016.7
20260506170006 62 260 0.9 4.3 0.00 0.00 0.00 50 1016.7
20260506165512 62 259 0.9 3.5 0.00 0.00 0.00 50 1016.8
20260506165005 62 247 0.9 3.5 0.00 0.00 0.00 48 1016.4
20260506164505 62 236 0.9 2.6 0.00 0.00 0.00 48 1016.6
20260506164005 63 265 3.5 8.7 0.00 0.00 0.00 47 1016.7
20260506163505 63 286 4.3 8.7 0.00 0.00 0.00 46 1016.4
20260506163005 64 295 3.5 7.0 0.00 0.00 0.00 44 1016.5
20260506162505 64 270 3.5 6.1 0.00 0.00 0.00 43 1016.5
20260506161505 65 282 5.2 8.7 0.00 0.00 0.00 42 1016.6
20260506161005 66 283 5.2 7.0 0.00 0.00 0.00 42 1016.5
20260506160505 66 272 6.1 8.7 0.00 0.00 0.00 42 1016.6
20260506155005 67 273 7.0 8.7 0.00 0.00 0.00 40 1016.4
20260506154005 67 275 7.0 9.6 0.00 0.00 0.00 39 1016.4
20260506153505 68 258 6.1 9.6 0.00 0.00 0.00 39 1016.4
20260506153005 68 257 5.2 7.8 0.00 0.00 0.00 37 1016.4
20260506152506 69 269 6.1 8.7 0.00 0.00 0.00 38 1016.4
20260506152005 69 278 6.1 8.7 0.00 0.00 0.00 38 1016.4
20260506151505 69 270 6.1 7.8 0.00 0.00 0.00 38 1016.2
20260506151005 69 262 6.1 8.7 0.00 0.00 0.00 38 1016.3
20260506150506 69 263 6.1 8.7 0.00 0.00 0.00 39 1016.4
20260506150005 69 292 6.1 8.7 0.00 0.00 0.00 38 1016.5
20260506145505 69 294 7.0 9.6 0.00 0.00 0.00 38 1016.5
20260506145005 69 263 7.0 9.6 0.00 0.00 0.00 38 1016.5
20260506144505 69 255 7.0 9.6 0.00 0.00 0.00 37 1016.4
20260506144006 69 269 7.0 8.7 0.00 0.00 0.00 39 1016.5
20260506143505 68 318 7.0 8.7 0.00 0.00 0.00 39 1016.4
20260506143005 68 327 7.0 8.7 0.00 0.00 0.00 37 1016.3
20260506141505 68 284 4.3 7.0 0.00 0.00 0.00 38 1016.3
20260506141005 68 279 5.2 7.0 0.00 0.00 0.00 37 1016.3
20260506140005 68 287 6.1 7.8 0.00 0.00 0.00 36 1016.4
20260506135505 68 288 6.1 8.7 0.00 0.00 0.00 35 1016.3
20260506135005 68 261 6.1 8.7 0.00 0.00 0.00 36 1016.4
20260506134508 68 251 6.1 9.6 0.00 0.00 0.00 37 1016.3
20260506134005 67 270 7.0 12.2 0.00 0.00 0.00 37 1016.4
20260506132506 69 301 7.8 11.3 0.00 0.00 0.00 35 1016.3
20260506132005 70 289 5.2 7.8 0.00 0.00 0.00 36 1016.3
20260506131506 70 290 5.2 7.0 0.00 0.00 0.00 37 1016.4
20260506130505 69 293 6.1 8.7 0.00 0.00 0.00 38 1016.3
20260506130005 69 300 5.2 7.0 0.00 0.00 0.00 41 1016.4
20260506125505 68 294 6.1 7.8 0.00 0.00 0.00 41 1016.5
20260506125005 68 282 7.8 11.3 0.00 0.00 0.00 41 1016.5
20260506124505 69 285 7.0 11.3 0.00 0.00 0.00 42 1016.3
20260506124005 69 286 5.2 11.3 0.00 0.00 0.00 42 1016.4
20260506123505 69 279 3.5 7.0 0.00 0.00 0.00 40 1016.3
20260506123005 70 279 1.7 5.2 0.00 0.00 0.00 39 1016.5
20260506122505 71 272 3.5 5.2 0.00 0.00 0.00 40 1016.6
20260506122006 71 240 4.3 7.0 0.00 0.00 0.00 39 1016.6
20260506121505 70 211 3.5 7.0 0.00 0.00 0.00 38 1016.6
20260506121005 70 258 2.6 4.3 0.00 0.00 0.00 34 1016.6
20260506120505 70 308 1.7 4.3 0.00 0.00 0.00 35 1016.6
20260506115505 67 270 4.3 7.0 0.00 0.00 0.00 37 1016.8
20260506115005 66 265 5.2 7.0 0.00 0.00 0.00 34 1017.0
20260506114005 67 271 5.2 7.8 0.00 0.00 0.00 33 1016.9
20260506112506 67 296 7.0 12.2 0.00 0.00 0.00 32 1016.8
20260506112020 67 293 6.1 9.6 0.00 0.00 0.00 32 1016.8
20260506111505 68 265 5.2 7.0 0.00 0.00 0.00 32 1016.8
20260506111006 68 270 5.2 7.0 0.00 0.00 0.00 32 1016.6
20260506110521 69 274 5.2 10.4 0.00 0.00 0.00 29 1016.6
20260506110005 69 285 4.3 10.4 0.00 0.00 0.00 30 1016.6
20260506105505 69 308 3.5 6.1 0.00 0.00 0.00 32 1016.4
20260506105006 69 297 3.5 6.1 0.00 0.00 0.00 29 1016.7
20260506103006 68 275 5.2 7.0 0.00 0.00 0.00 32 1016.3
20260506102005 69 292 5.2 7.8 0.00 0.00 0.00 32 1016.4
20260506101505 68 296 5.2 7.8 0.00 0.00 0.00 29 1016.4
20260506101005 68 293 5.2 7.0 0.00 0.00 0.00 30 1016.4
20260506100508 67 294 6.1 7.0 0.00 0.00 0.00 30 1016.5
20260506100008 67 283 6.1 7.0 0.00 0.00 0.00 29 1016.5
20260506095505 68 264 6.1 8.7 0.00 0.00 0.00 32 1016.4
20260506095007 68 282 6.1 8.7 0.00 0.00 0.00 28 1016.3
20260506094506 68 299 5.2 8.7 0.00 0.00 0.00 30 1016.4
20260506093505 67 262 6.1 7.0 0.00 0.00 0.00 29 1016.5
20260506093005 67 259 6.1 7.0 0.00 0.00 0.00 32 1016.5
20260506092506 67 273 6.1 8.7 0.00 0.00 0.00 32 1016.4
20260506092006 68 255 4.3 8.7 0.00 0.00 0.00 32 1016.4
20260506091505 69 258 3.5 7.0 0.00 0.00 0.00 33 1016.3
20260506091005 69 272 4.3 7.0 0.00 0.00 0.00 34 1016.4
20260506090505 68 280 3.5 7.0 0.00 0.00 0.00 34 1016.2
20260506090008 68 268 2.6 4.3 0.00 0.00 0.00 34 1016.2
20260506085505 68 271 2.6 5.2 0.00 0.00 0.00 34 1016.1
20260506085008 67 253 3.5 5.2 0.00 0.00 0.00 36 1016.1
20260506084506 67 253 3.5 5.2 0.00 0.00 0.00 32 1016.3
20260506084005 66 279 3.5 5.2 0.00 0.00 0.00 34 1016.1
20260506083005 66 279 3.5 5.2 0.00 0.00 0.00 34 1016.2
20260506082505 66 276 3.5 5.2 0.00 0.00 0.00 36 1016.3
20260506082009 65 276 3.5 7.0 0.00 0.00 0.00 37 1016.2
20260506081005 64 276 3.5 5.2 0.00 0.00 0.00 38 1016.2
20260506073505 60 0 0.0 0.0 0.00 0.00 0.00 44 1016.1
20260506073005 60 0 0.0 0.0 0.00 0.00 0.00 46 1016.2
20260506072505 60 0 0.0 0.0 0.00 0.00 0.00 48 1016.3
20260506071508 60 0 0.0 0.0 0.00 0.00 0.00 49 1016.2
20260506071005 58 0 0.0 0.0 0.00 0.00 0.00 53 1016.4
20260506062505 49 0 0.0 0.0 0.00 0.00 0.00 72 1016.7
20260506062005 49 0 0.0 0.0 0.00 0.00 0.00 74 1016.7
20260506061506 48 0 0.0 0.0 0.00 0.00 0.00 74 1016.7
20260506061006 48 0 0.0 0.0 0.00 0.00 0.00 75 1016.7
20260506060506 48 0 0.0 0.0 0.00 0.00 0.00 75 1016.8
20260506050505 43 0 0.0 0.0 0.00 0.00 0.00 92 1016.6
20260506045005 42 0 0.0 0.0 0.00 0.00 0.00 95 1016.8
20260506044013 41 0 0.0 0.0 0.00 0.00 0.00 94 1016.9
20260506043505 40 0 0.0 0.0 0.00 0.00 0.00 94 1017.0
20260506042505 39 0 0.0 0.0 0.00 0.00 0.00 94 1016.8
20260506042006 39 0 0.0 0.0 0.00 0.00 0.00 93 1017.1
20260506041505 39 0 0.0 0.0 0.00 0.00 0.00 93 1016.9
20260506041005 38 0 0.0 0.0 0.00 0.00 0.00 93 1017.0
20260506040505 39 0 0.0 0.0 0.00 0.00 0.00 93 1017.0
20260506040006 39 0 0.0 0.0 0.00 0.00 0.00 93 1016.9
20260506035504 39 0 0.0 0.0 0.00 0.00 0.00 93 1016.8
20260506034505 39 0 0.0 0.0 0.00 0.00 0.00 93 1016.7
20260506033505 39 0 0.0 0.0 0.00 0.00 0.00 92 1016.7
20260506033006 39 0 0.0 0.0 0.00 0.00 0.00 92 1016.6
20260506032505 39 0 0.0 0.0 0.00 0.00 0.00 92 1016.6
20260506032005 39 0 0.0 0.0 0.00 0.00 0.00 92 1016.7
20260506031505 40 0 0.0 0.0 0.00 0.00 0.00 92 1016.6
20260506031005 40 0 0.0 0.0 0.00 0.00 0.00 92 1016.6
20260506025520 40 1 0.0 0.9 0.00 0.00 0.00 93 1016.9
20260506025005 40 0 0.0 0.0 0.00 0.00 0.00 93 1016.6
20260506024505 40 0 0.0 0.0 0.00 0.00 0.00 93 1016.8
20260506024005 40 0 0.0 0.0 0.00 0.00 0.00 93 1016.8
20260506023505 40 0 0.0 0.0 0.00 0.00 0.00 93 1016.8
20260506023005 40 0 0.0 0.0 0.00 0.00 0.00 93 1016.8
20260506022505 40 0 0.0 0.0 0.00 0.00 0.00 92 1016.7
20260506021505 40 0 0.0 0.0 0.00 0.00 0.00 92 1017.0
20260506021005 40 0 0.0 0.0 0.00 0.00 0.00 92 1017.0
20260506020505 41 0 0.0 0.0 0.00 0.00 0.00 92 1017.1
20260506020005 41 0 0.0 0.0 0.00 0.00 0.00 92 1017.0
20260506015505 41 0 0.0 0.0 0.00 0.00 0.00 92 1017.1
20260506015005 41 0 0.0 0.0 0.00 0.00 0.00 92 1017.0
20260506014505 41 0 0.0 0.0 0.00 0.00 0.00 92 1016.9
20260506014006 41 0 0.0 0.0 0.00 0.00 0.00 91 1017.1
20260506013508 41 0 0.0 0.0 0.00 0.00 0.00 90 1017.1
20260506013005 41 0 0.0 0.0 0.00 0.00 0.00 90 1017.0
20260506012505 42 0 0.0 0.0 0.00 0.00 0.00 90 1017.2
20260506012007 42 0 0.0 0.0 0.00 0.00 0.00 89 1017.3
20260506011005 42 0 0.0 0.0 0.00 0.00 0.00 89 1017.2
20260506010005 43 0 0.0 0.0 0.00 0.00 0.00 89 1017.4
20260506005505 43 0 0.0 0.0 0.00 0.00 0.00 89 1017.2
20260506005006 43 0 0.0 0.0 0.00 0.00 0.00 89 1017.1
20260506004005 43 0 0.0 0.0 0.00 0.00 0.00 90 1017.1
20260506003507 42 0 0.0 0.0 0.00 0.00 0.00 89 1017.4
20260506003006 42 0 0.0 0.0 0.00 0.00 0.00 89 1017.4
20260506002506 42 0 0.0 0.0 0.00 0.00 0.00 89 1017.4
20260506002005 42 0 0.0 0.0 0.00 0.00 0.00 88 1017.5
20260506001505 42 0 0.0 0.0 0.00 0.00 0.00 88 1017.5
20260506001005 42 0 0.0 0.0 0.00 0.00 0.00 87 1017.6
20260506000505 43 0 0.0 0.0 0.00 0.00 0.00 87 1017.6
20260506000006 43 0 0.0 0.0 0.00 0.00 0.00 87 1017.7
20260505234505 42 0 0.0 0.0 0.00 0.00 0.00 88 1017.6
20260505234008 42 0 0.0 0.0 0.00 0.00 0.00 88 1017.8
20260505233506 42 0 0.0 0.0 0.00 0.00 0.00 89 1018.1
20260505233007 41 0 0.0 0.0 0.00 0.00 0.00 88 1017.9
20260505232508 41 0 0.0 0.0 0.00 0.00 0.00 88 1018.0
20260505232005 41 0 0.0 0.0 0.00 0.00 0.00 88 1017.9
20260505231505 41 0 0.0 0.0 0.00 0.00 0.00 89 1018.0
20260505231005 41 0 0.0 0.0 0.00 0.00 0.00 89 1018.2
20260505230506 41 0 0.0 0.0 0.00 0.00 0.00 89 1018.2
20260505230005 41 0 0.0 0.0 0.00 0.00 0.00 89 1018.2
20260505225506 40 0 0.0 0.0 0.00 0.00 0.00 88 1018.3
20260505225005 40 0 0.0 0.0 0.00 0.00 0.00 87 1018.2
20260505224520 40 0 0.0 0.0 0.00 0.00 0.00 87 1018.3
20260505223505 41 0 0.0 0.0 0.00 0.00 0.00 87 1018.6
20260505223005 41 0 0.0 0.0 0.00 0.00 0.00 87 1018.5
20260505222505 41 0 0.0 0.0 0.00 0.00 0.00 87 1018.5
20260505222005 40 0 0.0 0.0 0.00 0.00 0.00 86 1018.6
20260505221013 41 0 0.0 0.0 0.00 0.00 0.00 87 1018.7
20260505220505 41 0 0.0 0.0 0.00 0.00 0.00 86 1018.7
20260505220005 41 0 0.0 0.0 0.00 0.00 0.00 86 1018.6
20260505215505 41 0 0.0 0.0 0.00 0.00 0.00 86 1018.5
20260505215005 41 0 0.0 0.0 0.00 0.00 0.00 85 1018.5
20260505214505 41 0 0.0 0.0 0.00 0.00 0.00 85 1018.6
20260505214005 42 0 0.0 0.0 0.00 0.00 0.00 84 1018.4
20260505213505 42 0 0.0 0.0 0.00 0.00 0.00 84 1018.5
20260505212006 43 0 0.0 0.0 0.00 0.00 0.00 83 1018.6
20260505211505 43 0 0.0 0.0 0.00 0.00 0.00 83 1018.5
20260505211005 43 0 0.0 0.0 0.00 0.00 0.00 83 1018.4
20260505210505 43 0 0.0 0.0 0.00 0.00 0.00 83 1018.6
20260505210009 43 0 0.0 0.0 0.00 0.00 0.00 83 1018.7
20260505205005 44 0 0.0 0.0 0.00 0.00 0.00 82 1018.5
20260505204508 44 0 0.0 0.0 0.00 0.00 0.00 82 1018.6
20260505204008 44 0 0.0 0.0 0.00 0.00 0.00 82 1018.7
20260505203505 44 0 0.0 0.0 0.00 0.00 0.00 82 1018.6
20260505203005 44 0 0.0 0.0 0.00 0.00 0.00 82 1018.6
20260505202505 44 0 0.0 0.0 0.00 0.00 0.00 82 1018.7